SCP
0 0 0 0 0 -0 -0 0 -0 -0 -0 -0 0 0 -0 -0 -0 0 0 -0 -0 -0 -0 0 -0 -0 0 0 0 0 0 0 0 -0 -0 -0 -0 -0 -0 -0 -0 -0 -0
0 0 0 -0 -0 -0 -0 -0 0 0 -0 -0 0 0 0 -0 -0 0 0 -0 -0 -0 -0 -0 -0 -0 0 0 0 0 0 0 0 0 -0 -0 -0 -0 -0 -0 -0 -0 0
0 0 0 -0 -0 -0 -0 -0 0 -0 -0 -0 0 -0 -0 -0 -0 -0 -0 -0 -0 -0 -0 -0 -0 0 0 0 0 0 0 0 -0 -0 0 -0 -0 -0 -0 -0 -0 0 -0
0 0 0 0 0 0 0 -0 0 0 0 -0 -0 -0 0 0 0 -0 -0 -0 0 -0 -0 -0 -0 0 0 0 0 0 0 0 -0 -0 -0 0 -0 -0 -0 0 0 0 -0
0 1 0 0 0 0 0 0 0 0 0 0 0 -0 -0 -0 0 -0 0 -0 -0 -0 -0 -0 -0 0 0 0 0 -0 -0 -0 0 0 -0 -0 -0 -0 0 0 0 -0 0
1 1 0 0 0 0 0 0 0 0 0 0 0 -0 -0 -0 0 -0 0 -0 -0 -0 -0 -0 -0 -0 -0 -0 -0 -0 0 0 0 0 -0 -0 -0 -0 0 0 0 -0 0
1 0 0 0 0 0 0 0 0 0 0 0 0 -0 0 -0 -0 -0 0 -0 -0 -0 0 -0 0 -0 -0 0 0 0 0 0 0 0 0 -0 -0 -0 0 0 0 0 0
0 1 0 1 0 0 0 0 0 0 0 0 0 0 0 -0 -0 -0 -0 -0 -0 -0 -0 -0 -0 0 0 -0 0 0 0 0 -0 0 0 -0 -0 -0 0 0 0 0 0
0 1 1 1 0 0 1 0 0 0 0 0 0 0 0 0 0 -0 -0 -0 -0 -0 0 -0 -0 0 0 0 0 0 -0 0 -0 -0 0 0 -0 0 0 0 0 0 0
1 1 1 0 0 0 0 0 0 0 0 0 0 0 0 -0 -0 0 0 -0 -0 -0 0 0 0 0 -0 -0 -0 -0 -0 -0 -0 -0 -0 0 0 0 0 0 0 0 0
0 1 0 0 1 1 0 0 0 0 0 0 0 0 -0 -0 -0 0 0 0 -0 -0 0 0 -0 -0 -0 -0 0 -0 -0 -0 -0 -0 -0 0 0 0 0 0 0 0 0
0 1 0 0 0 0 0 0 0 0 0 0 0 0 0 0 0 0 0 0 -0 0 0 -0 -0 -0 -0 -0 -0 -0 -1 -0 -0 -0 -0 -0 0 0 0 0 0 0 -0
0 0 0 0 0 0 0 0 0 0 0 0 0 0 0 0 0 0 -0 -0 -0 0 0 -0 -0 -0 -0 -0 -0 -0 -1 -0 -0 -0 -0 -0 -0 -0 0 0 0 0 -0
0 0 0 0 0 0 0 0 -0 0 -0 0 0 0 0 0 0 0 -0 -0 0 0 0 0 -0 -0 -0 -0 -0 -0 0 -0 -0 -0 -0 -0 -0 -0 -0 -0 -0 0 -0
0 0 0 0 0 0 0 0 -0 0 -0 0 -0 -0 0 0 0 0 0 0 0 0 -0 0 0 -0 -0 -0 0 0 0 -0 -0 -0 -0 -0 -0 0 0 0 0 -0 -0
0 0 0 0 0 0 0 -0 0 0 -0 -0 0 0 0 0 0 0 0 0 0 -0 -0 0 0 0 0 -0 -0 0 0 -0 -0 -0 0 0 0 0 0 0 0 -0 -0
0 0 0 0 0 0 0 0 0 0 0 0 0 0 0 0 0 0 0 0 0 -0 -0 0 0 0 0 -0 0 0 0 0 0 -0 -0 -0 -0 0 0 0 0 0 -0
0 0 0 0 0 0 0 0 0 0 0 0 0 0 0 0 0 0 0 0 0 0 0 0 0 0 0 0 1 1 0 0 0 -0 -0 -0 -0 -0 -0 0 0 0 -0
0 0 0 0 0 0 0 0 0 0 0 0 0 0 0 0 0 0 0 1 0 0 0 0 0 0 0 -0 0 1 0 0 0 0 -0 -0 -0 0 0 0 0 0 -0
0 0 0 0 0 0 0 0 0 0 0 0 0 0 0 0 0 1 1 0 0 0 0 0 0 0 -0 -0 0 0 0 -0 -0 0 0 0 0 0 0 0 0 0 0
0 0 0 0 0 0 0 0 0 0 0 0 0 0 0 0 0 0 0 0 0 0 0 0 0 0 0 0 0 0 0 0 -0 0 0 0 0 0 0 -0 -0 0 0
0 0 0 0 0 0 0 -0 0 0 0 0 0 0 0 0 0 0 0 0 0 0 0 0 0 0 0 0 0 0 0 0 0 0 0 0 1 0 0 0 0 0 0
0 0 0 0 0 0 0 0 0 0 0 0 0 0 0 0 0 0 0 0 0 0 0 0 0 0 0 0 0 0 1 1 1 1 1 0 1 0 0 0 0 0 0
0 0 0 0 0 1 0 0 0 0 0 0 0 0 0 0 0 0 0 0 0 0 0 0 0 0 0 0 0 0 0 0 0 0 0 0 1 0 0 0 0 0 0
1 1 0 0 0 0 0 0 0 0 1 0 0 0 0 0 0 0 0 0 0 0 0 0 0 0 0 0 0 0 0 1 0 0 0 0 0 0 0 0 0 0 0
1 1 1 1 0 1 0 0 0 1 1 1 1 1 0 0 0 0 0 0 0 0 0 0 0 0 0 0 0 0 1 0 0 0 0 0 0 0 0 0 0 0 0
Wind_Speed_500mb
11 14 3 15 15 19 11 15 11 9 18 23 26 23 21 6 9 19 25 22 34 38 39 32 31 28 21 25 22 21 22 22 21 22 23 23 21 21 21 20 18 22 24
12 12 9 14 20 14 11 23 24 27 31 23 22 23 20 22 15 13 20 22 30 34 39 43 36 30 28 23 25 23 23 23 22 22 22 22 22 20 20 19 17 21 21
26 17 14 10 22 23 26 17 22 19 18 25 22 25 23 25 32 26 20 23 31 29 40 44 44 44 32 23 25 26 25 24 24 23 24 23 23 23 21 19 17 18 20
28 32 28 23 23 29 28 25 27 29 30 29 26 20 27 25 34 39 35 33 39 40 37 46 51 58 47 35 30 29 27 27 26 26 25 25 25 22 21 20 19 18 18
25 33 32 27 26 23 20 18 12 20 17 19 26 28 29 25 29 31 43 38 31 35 39 45 55 60 54 49 37 35 30 29 30 30 27 26 26 25 21 21 20 20 19
34 29 31 26 25 19 16 17 16 15 12 8 18 26 27 28 29 31 45 46 34 33 33 39 52 54 58 55 43 39 35 32 33 33 32 29 27 26 24 23 21 20 18
43 40 23 24 18 17 21 23 18 19 11 10 15 19 24 25 29 36 36 43 45 41 41 39 41 47 55 57 47 44 41 38 36 34 34 32 31 29 27 26 23 20 17
53 44 32 28 23 22 18 20 19 18 12 15 16 16 17 26 35 36 38 38 45 47 49 49 45 47 53 66 54 50 47 43 39 38 36 36 34 31 30 28 25 23 20
52 48 41 36 27 27 23 20 19 22 16 18 14 16 12 15 30 36 40 40 43 46 59 54 44 45 43 58 54 50 49 46 43 43 40 38 37 37 35 33 31 28 25
47 51 40 38 36 33 33 29 24 25 21 20 20 27 35 16 17 17 39 46 40 42 56 57 50 42 58 57 44 54 49 50 48 46 44 42 41 40 39 38 36 32 29
48 45 48 47 42 38 44 43 35 28 24 24 23 23 28 41 33 23 18 40 40 38 54 56 58 48 52 64 50 44 37 52 51 50 48 47 45 43 45 41 38 34 32
54 60 51 46 51 39 43 50 44 44 33 31 26 27 29 37 40 40 32 28 46 40 47 58 51 54 56 46 55 48 41 35 49 51 50 48 46 46 46 45 41 38 36
57 58 64 58 56 52 42 42 40 52 43 41 33 33 35 41 35 34 34 28 42 38 42 56 62 55 57 56 65 55 52 44 39 46 49 49 47 47 47 46 43 40 37
53 51 46 52 60 46 42 38 47 51 51 45 36 38 32 40 34 40 36 38 32 34 38 52 64 61 47 56 59 60 57 47 48 44 49 49 49 47 47 45 43 41 40
49 39 46 48 48 48 45 40 36 36 42 45 43 38 36 41 40 36 41 37 41 36 50 46 47 69 68 63 63 61 56 61 63 53 51 51 51 50 48 46 45 44 44
50 37 38 35 37 36 34 35 34 35 37 38 39 39 40 41 48 44 44 43 39 46 37 43 49 33 65 75 66 60 63 51 49 47 53 56 55 52 51 49 49 49 48
38 33 37 33 34 30 31 33 33 32 33 37 40 44 49 49 43 46 49 47 34 37 50 33 43 48 48 49 59 55 54 52 46 47 53 59 62 60 56 53 49 50 51
33 30 24 25 29 28 27 29 28 33 34 40 47 51 51 45 43 42 44 51 47 45 44 34 47 56 45 61 56 61 56 54 51 49 40 51 60 61 57 54 51 48 46
33 25 24 22 23 24 24 26 29 27 30 36 34 36 37 38 32 37 37 39 31 41 36 32 33 31 46 53 57 59 56 50 53 46 28 26 25 42 48 47 43 42 41
27 25 26 23 23 21 21 23 21 18 23 29 39 38 33 34 35 37 40 42 37 28 22 22 16 36 49 52 54 57 53 47 52 41 49 31 37 33 38 42 43 41 41
30 32 28 24 22 21 21 17 17 21 26 24 22 13 21 27 38 41 44 38 25 33 19 20 24 28 31 41 49 52 50 41 48 45 47 46 48 42 42 43 43 42 43
29 30 34 30 27 18 19 24 25 20 22 15 9 4 10 25 35 44 45 41 23 19 22 26 15 24 23 30 32 38 37 42 42 47 44 36 33 32 39 42 41 41 41
40 31 32 30 32 30 31 27 41 30 25 16 14 14 11 9 23 35 44 38 38 34 23 22 23 30 31 32 32 34 39 37 35 32 39 47 39 35 38 35 35 35 34
44 41 39 40 35 37 35 33 35 30 32 26 23 16 12 8 8 18 25 32 32 40 36 29 25 24 29 35 42 37 33 33 34 36 35 41 49 45 40 42 40 35 33
50 46 42 37 34 37 39 38 35 36 39 30 26 28 22 23 20 21 17 19 26 30 31 32 26 32 38 35 38 40 39 39 46 51 51 48 46 41 31 37 30 29 33
44 42 42 39 39 45 42 38 35 33 25 22 21 27 28 24 27 28 29 28 27 29 31 36 38 39 41 40 29 29 32 38 41 39 40 44 34 32 33 40 35 32 33
Wind_Direction_500mb
256 283 197 177 200 228 201 231 252 225 246 269 221 232 192 219 206 163 187 188 197 194 191 181 185 172 171 163 166 170 167 160 164 162 159 158 152 149 146 141 130 132 128
223 249 254 205 211 249 218 215 243 254 266 257 228 241 238 214 215 170 171 184 191 195 191 189 194 185 179 177 177 180 180 176 172 171 166 162 163 162 158 153 144 142 139
214 217 243 201 208 206 216 253 266 255 253 248 246 235 221 204 216 223 201 193 198 194 199 196 196 191 198 196 193 185 187 183 184 177 174 174 167 165 168 164 157 150 154
230 223 222 223 224 233 232 238 252 261 265 258 250 236 215 218 221 223 225 220 215 208 210 210 200 200 214 225 211 195 195 194 193 188 186 187 183 184 182 173 167 158 165
268 246 233 233 246 246 254 261 273 267 271 249 240 231 226 233 228 221 210 219 216 214 210 206 203 210 216 217 216 205 205 204 197 199 196 194 194 188 192 188 182 176 175
255 260 247 242 244 233 257 266 261 293 297 266 229 222 231 234 224 215 202 219 221 200 204 211 203 204 214 209 214 208 207 207 203 201 201 203 201 197 199 200 197 195 192
255 265 246 238 225 241 243 255 267 277 271 279 232 231 239 229 223 219 214 220 221 205 202 208 216 209 208 206 212 210 209 207 208 205 206 207 213 205 204 206 206 208 211
253 255 235 241 235 237 243 254 263 266 258 268 255 234 225 219 224 225 224 220 218 208 207 210 222 212 216 210 211 211 212 210 214 212 209 212 216 215 212 211 210 210 216
251 247 239 242 247 249 255 255 264 270 253 254 242 199 204 221 228 231 227 227 223 215 204 214 218 212 211 210 218 215 216 215 216 216 216 217 219 217 218 217 216 216 220
243 239 235 239 247 258 256 259 277 279 258 247 240 229 233 229 211 212 224 225 224 215 206 209 208 207 203 220 219 226 224 221 218 219 220 220 224 223 220 220 219 220 226
244 235 241 242 247 258 262 252 258 270 271 250 243 243 243 238 237 236 215 216 216 218 208 208 203 209 206 208 221 225 218 227 225 223 225 223 224 225 223 224 225 225 230
245 237 242 237 240 276 267 257 256 251 261 264 254 249 243 239 237 234 232 228 212 212 209 206 204 211 203 214 221 239 232 225 223 225 225 225 222 222 223 224 226 229 234
250 242 241 247 255 270 281 253 254 243 251 265 266 263 247 244 243 238 233 226 209 210 205 205 203 203 199 208 214 229 228 233 236 230 225 224 222 221 222 223 227 231 237
251 254 247 254 253 269 262 259 255 254 251 260 262 274 257 239 242 233 233 232 215 209 207 200 204 205 217 214 202 217 227 232 238 238 229 223 220 222 223 226 229 233 239
256 260 253 253 243 253 265 249 255 250 245 249 266 272 262 254 241 240 231 241 216 197 204 207 207 209 203 200 206 224 228 232 237 237 231 225 222 223 225 228 234 241 249
246 249 247 248 244 250 237 238 253 252 251 261 261 266 268 264 243 239 229 230 242 217 231 221 208 207 214 209 212 220 233 236 238 237 233 228 226 227 230 235 242 246 252
241 235 248 245 238 245 239 245 254 257 255 256 263 264 268 268 248 235 228 226 227 223 231 221 214 215 204 203 208 224 227 236 243 242 239 234 233 234 237 241 245 251 256
230 249 234 240 238 237 243 246 252 265 261 261 267 272 272 254 247 234 217 225 223 230 232 221 201 208 205 209 212 219 222 235 241 243 247 238 237 236 237 240 248 250 253
232 226 240 237 233 240 245 248 252 265 269 281 282 278 264 242 238 212 217 224 229 232 256 227 205 231 210 200 215 219 221 223 225 239 236 233 235 236 237 237 238 243 245
215 215 231 235 231 233 235 240 251 270 285 275 287 273 248 233 219 215 216 219 225 257 310 243 197 177 192 204 217 219 213 219 214 226 235 240 235 229 227 233 241 244 246
214 211 219 226 223 226 233 234 228 250 275 292 307 277 250 239 229 221 220 223 246 232 290 228 212 205 212 211 212 216 223 221 219 225 230 231 229 233 239 239 241 246 249
204 211 208 208 219 213 215 235 237 265 275 290 339 286 274 244 237 223 215 210 209 194 229 259 241 225 221 225 223 217 221 218 218 219 224 218 226 239 239 237 240 244 244
215 212 216 212 222 206 221 221 228 254 263 270 278 278 295 277 236 231 221 209 213 208 235 255 247 244 243 240 237 234 228 231 235 238 226 228 232 221 249 237 235 239 245
214 216 219 227 221 214 218 223 219 236 241 251 262 262 245 223 213 209 224 227 221 214 228 244 240 256 253 241 242 244 235 241 250 240 231 222 232 235 236 239 245 249 253
216 219 221 224 217 226 237 238 226 209 219 233 239 237 245 233 225 224 228 221 219 220 220 231 246 270 270 259 252 245 239 232 236 244 247 234 231 227 232 240 239 254 250
220 219 218 219 215 234 235 245 229 211 203 223 236 235 245 245 239 228 229 228 233 231 242 249 256 264 258 252 241 238 229 221 226 226 227 220 221 221 219 234 239 252 244
Wind_Speed_850mb
11 14 3 15 15 19 11 15 11 9 18 23 26 23 21 6 9 19 25 22 34 38 39 32 31 28 21 25 22 21 22 22 21 22 23 23 21 21 21 20 18 22 24
12 12 9 14 20 14 11 23 24 27 31 23 22 23 20 22 15 13 20 22 30 34 39 43 36 30 28 23 25 23 23 23 22 22 22 22 22 20 20 19 17 21 21
26 17 14 10 22 23 26 17 22 19 18 25 22 25 23 25 32 26 20 23 31 29 40 44 44 44 32 23 25 26 25 24 24 23 24 23 23 23 21 19 17 18 20
28 32 28 23 23 29 28 25 27 29 30 29 26 20 27 25 34 39 35 33 39 40 37 46 51 58 47 35 30 29 27 27 26 26 25 25 25 22 21 20 19 18 18
25 33 32 27 26 23 20 18 12 20 17 19 26 28 29 25 29 31 43 38 31 35 39 45 55 60 54 49 37 35 30 29 30 30 27 26 26 25 21 21 20 20 19
34 29 31 26 25 19 16 17 16 15 12 8 18 26 27 28 29 31 45 46 34 33 33 39 52 54 58 55 43 39 35 32 33 33 32 29 27 26 24 23 21 20 18
43 40 23 24 18 17 21 23 18 19 11 10 15 19 24 25 29 36 36 43 45 41 41 39 41 47 55 57 47 44 41 38 36 34 34 32 31 29 27 26 23 20 17
53 44 32 28 23 22 18 20 19 18 12 15 16 16 17 26 35 36 38 38 45 47 49 49 45 47 53 66 54 50 47 43 39 38 36 36 34 31 30 28 25 23 20
52 48 41 36 27 27 23 20 19 22 16 18 14 16 12 15 30 36 40 40 43 46 59 54 44 45 43 58 54 50 49 46 43 43 40 38 37 37 35 33 31 28 25
47 51 40 38 36 33 33 29 24 25 21 20 20 27 35 16 17 17 39 46 40 42 56 57 50 42 58 57 44 54 49 50 48 46 44 42 41 40 39 38 36 32 29
48 45 48 47 42 38 44 43 35 28 24 24 23 23 28 41 33 23 18 40 40 38 54 56 58 48 52 64 50 44 37 52 51 50 48 47 45 43 45 41 38 34 32
54 60 51 46 51 39 43 50 44 44 33 31 26 27 29 37 40 40 32 28 46 40 47 58 51 54 56 46 55 48 41 35 49 51 50 48 46 46 46 45 41 38 36
57 58 64 58 56 52 42 42 40 52 43 41 33 33 35 41 35 34 34 28 42 38 42 56 62 55 57 56 65 55 52 44 39 46 49 49 47 47 47 46 43 40 37
53 51 46 52 60 46 42 38 47 51 51 45 36 38 32 40 34 40 36 38 32 34 38 52 64 61 47 56 59 60 57 47 48 44 49 49 49 47 47 45 43 41 40
49 39 46 48 48 48 45 40 36 36 42 45 43 38 36 41 40 36 41 37 41 36 50 46 47 69 68 63 63 61 56 61 63 53 51 51 51 50 48 46 45 44 44
50 37 38 35 37 36 34 35 34 35 37 38 39 39 40 41 48 44 44 43 39 46 37 43 49 33 65 75 66 60 63 51 49 47 53 56 55 52 51 49 49 49 48
38 33 37 33 34 30 31 33 33 32 33 37 40 44 49 49 43 46 49 47 34 37 50 33 43 48 48 49 59 55 54 52 46 47 53 59 62 60 56 53 49 50 51
33 30 24 25 29 28 27 29 28 33 34 40 47 51 51 45 43 42 44 51 47 45 44 34 47 56 45 61 56 61 56 54 51 49 40 51 60 61 57 54 51 48 46
33 25 24 22 23 24 24 26 29 27 30 36 34 36 37 38 32 37 37 39 31 41 36 32 33 31 46 53 57 59 56 50 53 46 28 26 25 42 48 47 43 42 41
27 25 26 23 23 21 21 23 21 18 23 29 39 38 33 34 35 37 40 42 37 28 22 22 16 36 49 52 54 57 53 47 52 41 49 31 37 33 38 42 43 41 41
30 32 28 24 22 21 21 17 17 21 26 24 22 13 21 27 38 41 44 38 25 33 19 20 24 28 31 41 49 52 50 41 48 45 47 46 48 42 42 43 43 42 43
29 30 34 30 27 18 19 24 25 20 22 15 9 4 10 25 35 44 45 41 23 19 22 26 15 24 23 30 32 38 37 42 42 47 44 36 33 32 39 42 41 41 41
40 31 32 30 32 30 31 27 41 30 25 16 14 14 11 9 23 35 44 38 38 34 23 22 23 30 31 32 32 34 39 37 35 32 39 47 39 35 38 35 35 35 34
44 41 39 40 35 37 35 33 35 30 32 26 23 16 12 8 8 18 25 32 32 40 36 29 25 24 29 35 42 37 33 33 34 36 35 41 49 45 40 42 40 35 33
50 46 42 37 34 37 39 38 35 36 39 30 26 28 22 23 20 21 17 19 26 30 31 32 26 32 38 35 38 40 39 39 46 51 51 48 46 41 31 37 30 29 33
44 42 42 39 39 45 42 38 35 33 25 22 21 27 28 24 27 28 29 28 27 29 31 36 38 39 41 40 29 29 32 38 41 39 40 44 34 32 33 40 35 32 33
Wind_Direction_850mb
256 283 197 177 200 228 201 231 252 225 246 269 221 232 192 219 206 163 187 188 197 194 191 181 185 172 171 163 166 170 167 160 164 162 159 158 152 149 146 141 130 132 128
223 249 254 205 211 249 218 215 243 254 266 257 228 241 238 214 215 170 171 184 191 195 191 189 194 185 179 177 177 180 180 176 172 171 166 162 163 162 158 153 144 142 139
214 217 243 201 208 206 216 253 266 255 253 248 246 235 221 204 216 223 201 193 198 194 199 196 196 191 198 196 193 185 187 183 184 177 174 174 167 165 168 164 157 150 154
230 223 222 223 224 233 232 238 252 261 265 258 250 236 215 218 221 223 225 220 215 208 210 210 200 200 214 225 211 195 195 194 193 188 186 187 183 184 182 173 167 158 165
268 246 233 233 246 246 254 261 273 267 271 249 240 231 226 233 228 221 210 219 216 214 210 206 203 210 216 217 216 205 205 204 197 199 196 194 194 188 192 188 182 176 175
255 260 247 242 244 233 257 266 261 293 297 266 229 222 231 234 224 215 202 219 221 200 204 211 203 204 214 209 214 208 207 207 203 201 201 203 201 197 199 200 197 195 192
255 265 246 238 225 241 243 255 267 277 271 279 232 231 239 229 223 219 214 220 221 205 202 208 216 209 208 206 212 210 209 207 208 205 206 207 213 205 204 206 206 208 211
253 255 235 241 235 237 243 254 263 266 258 268 255 234 225 219 224 225 224 220 218 208 207 210 222 212 216 210 211 211 212 210 214 212 209 212 216 215 212 211 210 210 216
251 247 239 242 247 249 255 255 264 270 253 254 242 199 204 221 228 231 227 227 223 215 204 214 218 212 211 210 218 215 216 215 216 216 216 217 219 217 218 217 216 216 220
243 239 235 239 247 258 256 259 277 279 258 247 240 229 233 229 211 212 224 225 224 215 206 209 208 207 203 220 219 226 224 221 218 219 220 220 224 223 220 220 219 220 226
244 235 241 242 247 258 262 252 258 270 271 250 243 243 243 238 237 236 215 216 216 218 208 208 203 209 206 208 221 225 218 227 225 223 225 223 224 225 223 224 225 225 230
245 237 242 237 240 276 267 257 256 251 261 264 254 249 243 239 237 234 232 228 212 212 209 206 204 211 203 214 221 239 232 225 223 225 225 225 222 222 223 224 226 229 234
250 242 241 247 255 270 281 253 254 243 251 265 266 263 247 244 243 238 233 226 209 210 205 205 203 203 199 208 214 229 228 233 236 230 225 224 222 221 222 223 227 231 237
251 254 247 254 253 269 262 259 255 254 251 260 262 274 257 239 242 233 233 232 215 209 207 200 204 205 217 214 202 217 227 232 238 238 229 223 220 222 223 226 229 233 239
256 260 253 253 243 253 265 249 255 250 245 249 266 272 262 254 241 240 231 241 216 197 204 207 207 209 203 200 206 224 228 232 237 237 231 225 222 223 225 228 234 241 249
246 249 247 248 244 250 237 238 253 252 251 261 261 266 268 264 243 239 229 230 242 217 231 221 208 207 214 209 212 220 233 236 238 237 233 228 226 227 230 235 242 246 252
241 235 248 245 238 245 239 245 254 257 255 256 263 264 268 268 248 235 228 226 227 223 231 221 214 215 204 203 208 224 227 236 243 242 239 234 233 234 237 241 245 251 256
230 249 234 240 238 237 243 246 252 265 261 261 267 272 272 254 247 234 217 225 223 230 232 221 201 208 205 209 212 219 222 235 241 243 247 238 237 236 237 240 248 250 253
232 226 240 237 233 240 245 248 252 265 269 281 282 278 264 242 238 212 217 224 229 232 256 227 205 231 210 200 215 219 221 223 225 239 236 233 235 236 237 237 238 243 245
215 215 231 235 231 233 235 240 251 270 285 275 287 273 248 233 219 215 216 219 225 257 310 243 197 177 192 204 217 219 213 219 214 226 235 240 235 229 227 233 241 244 246
214 211 219 226 223 226 233 234 228 250 275 292 307 277 250 239 229 221 220 223 246 232 290 228 212 205 212 211 212 216 223 221 219 225 230 231 229 233 239 239 241 246 249
204 211 208 208 219 213 215 235 237 265 275 290 339 286 274 244 237 223 215 210 209 194 229 259 241 225 221 225 223 217 221 218 218 219 224 218 226 239 239 237 240 244 244
215 212 216 212 222 206 221 221 228 254 263 270 278 278 295 277 236 231 221 209 213 208 235 255 247 244 243 240 237 234 228 231 235 238 226 228 232 221 249 237 235 239 245
214 216 219 227 221 214 218 223 219 236 241 251 262 262 245 223 213 209 224 227 221 214 228 244 240 256 253 241 242 244 235 241 250 240 231 222 232 235 236 239 245 249 253
216 219 221 224 217 226 237 238 226 209 219 233 239 237 245 233 225 224 228 221 219 220 220 231 246 270 270 259 252 245 239 232 236 244 247 234 231 227 232 240 239 254 250
220 219 218 219 215 234 235 245 229 211 203 223 236 235 245 245 239 228 229 228 233 231 242 249 256 264 258 252 241 238 229 221 226 226 227 220 221 221 219 234 239 252 244